Location: Most
(50.5133°N, 13.6207°E)
Time: 20:13:09
(UTC+02:00)

ISS - Pass Details

Date: 20 September 2024
Orbit: 412 x 424 km, 51.6° (Epoch: 09 October)

Event Time Altitude Azimuth Distance (km) Brightness Sun altitude
Rises 20:37:31 0° 274° (W) 2,364 1.6 -14.9°
Reaches altitude 10° 20:39:37 10° 277° (W) 1,503 0.3 -15.2°
Maximum altitude 20:42:59 71° 2° (N) 450 -3.6 -15.7°
Enters shadow 20:44:18 34° 78° (ENE) 717 -3.0 -15.9°
